SL-8 R/B

Satellite information

Favourite Embed

Satellite Type and Status

ROCKET BODYIN ORBIT

Key statistics

Satellite SL-8 R/B at a glance.

Uptime

16601

Days in orbit

Revolutions

≈ 14.4

Per day

Orbit

LEO

Low Earth Orbit

Inclination

74.1

Latest

Satellite identification and parameters

Extended collection of information and parameters for SL-8 R/B.

Object identification

Identified? True

Debris? False

Object name: SL-8 R/B

International designator: 1980-056B

Object number (NORAD): 11870

Object ID (CCSDS): 11870

Country: COMMONWEALTH OF INDEPENDENT STATES (CIS)

Current information (Y/N): Y

RCS size: LARGE

Orbital parameters

Period: 100.117 minutes

Inclination: 74.0534 deg

SMA: 7142.18 km

Apoapsis: 775.458 km

Periapsis: 752.631 km

RAAN: 271.0808 deg

Eccentricy: 0.00159801

Argument of periapsis: 176.8245 deg

Mean anomaly: 183.3014 deg

Mean motion: 14.38323577 rev/day

Mean motion (dot): 0.00000424 rev/day2

B* drag term: 0.00014758869 1/REarth

Two-line elements (TLE)

Creation date: Dec. 12, 2025, 10:14 a.m.

Reference frame: TEME

Reference center: EARTH

Epoch: Dec. 12, 2025, 6 a.m. UTC

TLE line 0: 0 SL-8 R/B

TLE line 1: 1 11870U 80056B 25346.25047246 .00000424 00000-0 14759-3 0 9995

TLE line 2: 2 11870 74.0534 271.0808 0015980 176.8245 183.3014 14.38323577356326

Live tracking on map

Real-time ground track for satellite SL-8 R/B.

In-orbit conjunctions

A list of the most updated potential collisions computed for object SL-8 R/B.

Target Orbit TCA Probability of collision Miss distance Type
NOAA 17 DEB SSO 2025-12-07 16:54:17 0.0001603017 598.0 (m) DEBRIS
NOAA 16 DEB SSO 2025-11-07 16:05:22 0.0001075526 205.0 (m) DEBRIS
FENGYUN 1C DEB SSO 2025-01-13 23:32:54 0.0002420317 116.0 (m) DEBRIS

Associated space launch

Military communications satellite

SL-8 R/B was lifted into orbit during the mission ‘Kosmos-3M | Strela-2M 23’, on board a Kosmos-3M space rocket.

The launch took place on July 1, 1980, 7:12 a.m. from 132/2.

For more information about the launch, click the button.

Launch to space Kosmos-3M | Strela-2M 23
Kosmos-3M | Strela-2M 23

Agency: N/A

Status: Launch Successful

Launch date: July 1, 1980, 7:12 a.m. UTC

Rocket: Kosmos-3M

Launch pad: 132/2

Location: Plesetsk Cosmodrome, Russian Federation

...

Latest news about this satellite

There are no fresh news available about this satellite. Check back as we update our databases every day.


Newsletter sign-up

Weekly statistics, charts and insights to help you stay on top of the space industry.